| time (UTC) | temp F | wind direction | speed MPH | gust MPH | rain 1hr in | rain 24hr in | rain mn in | humidity % | barometer mb |
| 20260507060528 | 64 | 359 | 8.0 | 14.0 | 0.00 | 0.00 | 0.00 | 82 | 1011.6 |
| 20260507060036 | 65 | 359 | 9.0 | 14.0 | 0.00 | 0.00 | 0.00 | 83 | 1011.6 |
| 20260507055528 | 65 | 359 | 9.0 | 15.0 | 0.00 | 0.00 | 0.00 | 83 | 1011.6 |
| 20260507055131 | 65 | 359 | 10.0 | 15.0 | 0.00 | 0.00 | 0.00 | 83 | 1011.9 |
| 20260507054535 | 65 | 359 | 9.0 | 13.0 | 0.00 | 0.00 | 0.00 | 85 | 1011.9 |
| 20260507054023 | 65 | 359 | 7.0 | 16.0 | 0.00 | 0.00 | 0.00 | 85 | 1011.9 |
| 20260507053523 | 65 | 359 | 9.0 | 16.0 | 0.00 | 0.00 | 0.00 | 85 | 1012.0 |
| 20260507053021 | 65 | 359 | 8.0 | 14.0 | 0.00 | 0.00 | 0.00 | 85 | 1012.2 |
| 20260507052524 | 65 | 359 | 8.0 | 12.0 | 0.00 | 0.00 | 0.00 | 85 | 1012.3 |
| 20260507052020 | 65 | 359 | 8.0 | 12.0 | 0.00 | 0.00 | 0.00 | 85 | 1012.3 |
| 20260507051520 | 65 | 359 | 7.0 | 14.0 | 0.00 | 0.00 | 0.00 | 85 | 1012.4 |
| 20260507051023 | 65 | 4 | 8.0 | 14.0 | 0.00 | 0.00 | 0.00 | 85 | 1012.4 |
| 20260507050519 | 65 | 359 | 7.0 | 13.0 | 0.00 | 0.00 | 0.00 | 86 | 1012.6 |
| 20260507050039 | 66 | 359 | 9.0 | 13.0 | 0.00 | 0.00 | 0.00 | 85 | 1012.6 |
| 20260507045517 | 66 | 359 | 8.0 | 13.0 | 0.00 | 0.00 | 0.00 | 85 | 1012.7 |
| 20260507045116 | 66 | 359 | 8.0 | 14.0 | 0.00 | 0.00 | 0.00 | 85 | 1012.7 |
| 20260507044522 | 66 | 359 | 9.0 | 14.0 | 0.00 | 0.00 | 0.00 | 85 | 1012.7 |
| 20260507044015 | 66 | 359 | 6.0 | 12.0 | 0.00 | 0.00 | 0.00 | 85 | 1012.7 |
| 20260507043515 | 66 | 359 | 8.0 | 15.0 | 0.00 | 0.00 | 0.00 | 84 | 1012.8 |
| 20260507043015 | 66 | 359 | 8.0 | 15.0 | 0.00 | 0.00 | 0.00 | 85 | 1012.9 |
| 20260507042515 | 66 | 359 | 8.0 | 14.0 | 0.00 | 0.00 | 0.00 | 86 | 1012.9 |
| 20260507042014 | 65 | 359 | 8.0 | 14.0 | 0.00 | 0.00 | 0.00 | 88 | 1012.9 |
| 20260507041513 | 65 | 359 | 9.0 | 14.0 | 0.00 | 0.00 | 0.00 | 89 | 1013.0 |
| 20260507041013 | 65 | 359 | 8.0 | 15.0 | 0.00 | 0.00 | 0.00 | 90 | 1013.0 |
| 20260507040512 | 65 | 359 | 10.0 | 15.0 | 0.00 | 0.00 | 0.00 | 89 | 1013.0 |
| 20260507040014 | 65 | 359 | 8.0 | 12.0 | 0.00 | 0.00 | 0.00 | 89 | 1013.0 |
| 20260507035510 | 66 | 4 | 7.0 | 13.0 | 0.00 | 0.00 | 0.00 | 89 | 1013.1 |
| 20260507035110 | 65 | 359 | 9.0 | 13.0 | 0.00 | 0.00 | 0.00 | 89 | 1013.2 |
| 20260507034511 | 65 | 359 | 8.0 | 12.0 | 0.00 | 0.00 | 0.00 | 89 | 1013.2 |
| 20260507034013 | 65 | 359 | 8.0 | 10.0 | 0.00 | 0.00 | 0.00 | 90 | 1013.3 |
| 20260507033508 | 65 | 4 | 8.0 | 12.0 | 0.00 | 0.00 | 0.00 | 89 | 1013.3 |
| 20260507033008 | 66 | 359 | 6.0 | 13.0 | 0.00 | 0.00 | 0.00 | 89 | 1013.3 |
| 20260507032506 | 66 | 359 | 8.0 | 13.0 | 0.00 | 0.00 | 0.00 | 89 | 1013.4 |
| 20260507032108 | 66 | 8 | 7.0 | 12.0 | 0.00 | 0.00 | 0.00 | 89 | 1013.4 |
| 20260507031507 | 66 | 359 | 8.0 | 12.0 | 0.00 | 0.00 | 0.00 | 89 | 1013.4 |
| 20260507031006 | 66 | 4 | 6.0 | 11.0 | 0.00 | 0.00 | 0.00 | 89 | 1013.4 |
| 20260507030505 | 66 | 4 | 7.0 | 11.0 | 0.00 | 0.00 | 0.00 | 89 | 1013.5 |
| 20260507030006 | 66 | 359 | 6.0 | 11.0 | 0.00 | 0.00 | 0.00 | 89 | 1013.6 |
| 20260507025504 | 66 | 359 | 6.0 | 10.0 | 0.00 | 0.00 | 0.00 | 88 | 1013.7 |
| 20260507025104 | 66 | 359 | 7.0 | 11.0 | 0.00 | 0.00 | 0.00 | 88 | 1013.8 |
| 20260507024507 | 66 | 16 | 8.0 | 11.0 | 0.00 | 0.00 | 0.00 | 88 | 1013.8 |
| 20260507024006 | 66 | 359 | 7.0 | 11.0 | 0.00 | 0.00 | 0.00 | 88 | 1013.8 |
| 20260507023506 | 66 | 359 | 8.0 | 11.0 | 0.00 | 0.00 | 0.00 | 88 | 1013.8 |
| 20260507023006 | 66 | 359 | 6.0 | 10.0 | 0.00 | 0.00 | 0.00 | 87 | 1013.9 |
| 20260507022506 | 66 | 359 | 7.0 | 11.0 | 0.00 | 0.00 | 0.00 | 87 | 1013.9 |
| 20260507022006 | 66 | 359 | 7.0 | 11.0 | 0.00 | 0.00 | 0.00 | 86 | 1013.9 |
| 20260507021516 | 67 | 359 | 6.0 | 10.0 | 0.00 | 0.00 | 0.00 | 85 | 1014.0 |
| 20260507021005 | 67 | 359 | 7.0 | 10.0 | 0.00 | 0.00 | 0.00 | 85 | 1013.9 |
| 20260507020505 | 67 | 354 | 7.0 | 11.0 | 0.00 | 0.00 | 0.00 | 84 | 1014.0 |
| 20260507020005 | 67 | 8 | 7.0 | 11.0 | 0.00 | 0.00 | 0.00 | 83 | 1014.0 |
| 20260507015506 | 67 | 4 | 6.0 | 10.0 | 0.00 | 0.00 | 0.00 | 83 | 1014.0 |
| 20260507015105 | 67 | 359 | 6.0 | 10.0 | 0.00 | 0.00 | 0.00 | 83 | 1014.1 |
| 20260507014503 | 67 | 359 | 5.0 | 9.0 | 0.00 | 0.00 | 0.00 | 83 | 1014.1 |
| 20260507014005 | 67 | 359 | 7.0 | 9.0 | 0.00 | 0.00 | 0.00 | 82 | 1014.2 |
| 20260507013504 | 67 | 359 | 6.0 | 12.0 | 0.00 | 0.00 | 0.00 | 82 | 1014.2 |
| 20260507013007 | 67 | 4 | 7.0 | 12.0 | 0.00 | 0.00 | 0.00 | 82 | 1014.1 |
| 20260507012505 | 67 | 359 | 6.0 | 12.0 | 0.00 | 0.00 | 0.00 | 81 | 1014.2 |
| 20260507012003 | 67 | 359 | 6.0 | 11.0 | 0.00 | 0.00 | 0.00 | 82 | 1014.1 |
| 20260507011511 | 67 | 359 | 8.0 | 11.0 | 0.00 | 0.00 | 0.00 | 82 | 1014.3 |
| 20260507011002 | 67 | 359 | 7.0 | 14.0 | 0.00 | 0.00 | 0.00 | 81 | 1014.3 |
| 20260507010506 | 67 | 359 | 7.0 | 14.0 | 0.00 | 0.00 | 0.00 | 82 | 1014.2 |
| 20260507010005 | 67 | 359 | 7.0 | 11.0 | 0.00 | 0.00 | 0.00 | 82 | 1014.3 |
| 20260507005503 | 67 | 359 | 8.0 | 11.0 | 0.00 | 0.00 | 0.00 | 83 | 1014.3 |
| 20260507005103 | 67 | 359 | 6.0 | 11.0 | 0.00 | 0.00 | 0.00 | 83 | 1014.4 |
| 20260507004600 | 67 | 359 | 6.0 | 11.0 | 0.00 | 0.00 | 0.00 | 84 | 1014.3 |
| 20260507004100 | 67 | 359 | 7.0 | 11.0 | 0.00 | 0.00 | 0.00 | 83 | 1014.4 |
| 20260507003600 | 68 | 359 | 7.0 | 11.0 | 0.00 | 0.00 | 0.00 | 82 | 1014.4 |
| 20260507003100 | 68 | 359 | 7.0 | 10.0 | 0.00 | 0.00 | 0.00 | 83 | 1014.4 |
| 20260507002559 | 68 | 359 | 7.0 | 10.0 | 0.00 | 0.00 | 0.00 | 83 | 1014.5 |
| 20260507002100 | 67 | 359 | 7.0 | 11.0 | 0.00 | 0.00 | 0.00 | 86 | 1014.5 |
| 20260507001607 | 67 | 359 | 6.0 | 11.0 | 0.00 | 0.00 | 0.00 | 87 | 1014.6 |
| 20260507001059 | 67 | 359 | 6.0 | 9.0 | 0.00 | 0.00 | 0.00 | 88 | 1014.6 |
| 20260507000559 | 67 | 359 | 6.0 | 9.0 | 0.00 | 0.00 | 0.00 | 87 | 1014.7 |
| 20260507000059 | 68 | 4 | 7.0 | 9.0 | 0.00 | 0.00 | 0.00 | 86 | 1014.6 |
| 20260506235559 | 68 | 359 | 6.0 | 9.0 | 0.00 | 0.00 | 0.00 | 86 | 1014.7 |
| 20260506235058 | 68 | 359 | 5.0 | 8.0 | 0.00 | 0.00 | 0.00 | 86 | 1014.7 |
| 20260506234505 | 68 | 359 | 4.0 | 9.0 | 0.00 | 0.00 | 0.00 | 85 | 1014.7 |
| 20260506234006 | 69 | 359 | 5.0 | 10.0 | 0.00 | 0.00 | 0.00 | 84 | 1014.6 |
| 20260506233506 | 69 | 359 | 6.0 | 10.0 | 0.00 | 0.00 | 0.00 | 84 | 1014.7 |
| 20260506233006 | 69 | 359 | 5.0 | 11.0 | 0.00 | 0.00 | 0.00 | 85 | 1014.6 |
| 20260506232505 | 69 | 359 | 6.0 | 9.0 | 0.00 | 0.00 | 0.00 | 83 | 1014.5 |
| 20260506232007 | 69 | 354 | 5.0 | 10.0 | 0.00 | 0.00 | 0.00 | 83 | 1014.4 |
| 20260506231505 | 69 | 354 | 5.0 | 10.0 | 0.00 | 0.00 | 0.00 | 84 | 1014.3 |
| 20260506231006 | 69 | 4 | 5.0 | 8.0 | 0.00 | 0.00 | 0.00 | 84 | 1014.4 |
| 20260506230504 | 69 | 4 | 5.0 | 8.0 | 0.00 | 0.00 | 0.00 | 84 | 1014.3 |
| 20260506230005 | 69 | 4 | 5.0 | 8.0 | 0.00 | 0.00 | 0.00 | 84 | 1014.2 |
| 20260506225509 | 69 | 4 | 5.0 | 8.0 | 0.00 | 0.00 | 0.00 | 85 | 1014.2 |
| 20260506225105 | 69 | 4 | 5.0 | 10.0 | 0.00 | 0.00 | 0.00 | 88 | 1014.1 |
| 20260506224600 | 69 | 359 | 5.0 | 10.0 | 0.00 | 0.00 | 0.00 | 88 | 1014.1 |
| 20260506224101 | 69 | 8 | 5.0 | 8.0 | 0.00 | 0.00 | 0.00 | 88 | 1014.0 |
| 20260506223602 | 69 | 8 | 4.0 | 8.0 | 0.00 | 0.00 | 0.00 | 90 | 1014.1 |
| 20260506223102 | 69 | 16 | 4.0 | 7.0 | 0.00 | 0.00 | 0.00 | 91 | 1014.0 |
| 20260506222559 | 69 | 4 | 5.0 | 8.0 | 0.00 | 0.00 | 0.00 | 92 | 1014.0 |
| 20260506222101 | 69 | 4 | 4.0 | 8.0 | 0.00 | 0.00 | 0.00 | 92 | 1014.0 |
| 20260506221559 | 69 | 4 | 4.0 | 6.0 | 0.00 | 0.00 | 0.00 | 91 | 1014.0 |
| 20260506221059 | 69 | 4 | 4.0 | 6.0 | 0.00 | 0.00 | 0.00 | 91 | 1013.9 |
| 20260506220559 | 69 | 4 | 4.0 | 7.0 | 0.00 | 0.00 | 0.00 | 90 | 1013.9 |
| 20260506220101 | 69 | 4 | 3.0 | 7.0 | 0.00 | 0.00 | 0.00 | 90 | 1013.9 |
| 20260506215601 | 69 | 4 | 4.0 | 6.0 | 0.00 | 0.00 | 0.00 | 89 | 1013.9 |
| 20260506215103 | 70 | 4 | 4.0 | 7.0 | 0.00 | 0.00 | 0.00 | 89 | 1013.8 |
| 20260506214557 | 70 | 4 | 4.0 | 6.0 | 0.00 | 0.00 | 0.00 | 89 | 1013.7 |
| 20260506214057 | 70 | 4 | 5.0 | 6.0 | 0.00 | 0.00 | 0.00 | 89 | 1013.6 |
| 20260506213557 | 70 | 4 | 4.0 | 6.0 | 0.00 | 0.00 | 0.00 | 88 | 1013.7 |
| 20260506213057 | 70 | 4 | 4.0 | 7.0 | 0.00 | 0.00 | 0.00 | 88 | 1013.6 |
| 20260506212556 | 70 | 4 | 5.0 | 7.0 | 0.00 | 0.00 | 0.00 | 87 | 1013.5 |
| 20260506212056 | 70 | 4 | 4.0 | 7.0 | 0.00 | 0.00 | 0.00 | 88 | 1013.6 |
| 20260506211557 | 70 | 4 | 4.0 | 6.0 | 0.00 | 0.00 | 0.00 | 88 | 1013.6 |
| 20260506211056 | 70 | 4 | 4.0 | 6.0 | 0.00 | 0.00 | 0.00 | 88 | 1013.6 |
| 20260506210556 | 70 | 4 | 3.0 | 7.0 | 0.00 | 0.00 | 0.00 | 87 | 1013.5 |
| 20260506210056 | 70 | 4 | 4.0 | 7.0 | 0.00 | 0.00 | 0.00 | 86 | 1013.5 |
| 20260506205556 | 70 | 359 | 3.0 | 5.0 | 0.00 | 0.00 | 0.00 | 85 | 1013.5 |
| 20260506205056 | 70 | 359 | 2.0 | 4.0 | 0.00 | 0.00 | 0.00 | 86 | 1013.4 |
| 20260506204601 | 70 | 359 | 1.0 | 4.0 | 0.00 | 0.00 | 0.00 | 86 | 1013.4 |
| 20260506204056 | 70 | 359 | 1.0 | 4.0 | 0.00 | 0.00 | 0.00 | 85 | 1013.4 |
| 20260506203557 | 70 | 359 | 0.0 | 3.0 | 0.00 | 0.00 | 0.00 | 91 | 1013.3 |
| 20260506203057 | 71 | 359 | 1.0 | 2.0 | 0.00 | 0.00 | 0.00 | 91 | 1013.4 |
| 20260506202600 | 71 | 359 | 0.0 | 2.0 | 0.00 | 0.00 | 0.00 | 89 | 1013.4 |
| 20260506202059 | 72 | 359 | 0.0 | 1.0 | 0.00 | 0.00 | 0.00 | 87 | 1013.3 |
| 20260506201558 | 72 | 359 | 0.0 | 1.0 | 0.00 | 0.00 | 0.00 | 84 | 1013.2 |
| 20260506201057 | 72 | 359 | 0.0 | 1.0 | 0.00 | 0.00 | 0.00 | 83 | 1013.3 |
| 20260506200558 | 72 | 359 | 0.0 | 1.0 | 0.00 | 0.00 | 0.00 | 83 | 1013.3 |
| 20260506200110 | 72 | 359 | 0.0 | 1.0 | 0.00 | 0.00 | 0.00 | 84 | 1013.3 |
| 20260506195600 | 72 | 359 | 0.0 | 2.0 | 0.00 | 0.00 | 0.00 | 86 | 1013.2 |
| 20260506195056 | 72 | 359 | 0.0 | 2.0 | 0.00 | 0.00 | 0.00 | 83 | 1013.2 |
| 20260506194614 | 72 | 359 | 0.0 | 2.0 | 0.00 | 0.00 | 0.00 | 83 | 1013.2 |
| 20260506194056 | 72 | 359 | 0.0 | 2.0 | 0.00 | 0.00 | 0.00 | 82 | 1013.3 |
| 20260506193554 | 72 | 359 | 0.0 | 2.0 | 0.00 | 0.00 | 0.00 | 82 | 1013.3 |
| 20260506193055 | 72 | 359 | 0.0 | 1.0 | 0.00 | 0.00 | 0.00 | 85 | 1013.4 |
| 20260506192555 | 72 | 359 | 0.0 | 1.0 | 0.00 | 0.00 | 0.00 | 86 | 1013.4 |
| 20260506192056 | 72 | 359 | 0.0 | 3.0 | 0.00 | 0.00 | 0.00 | 86 | 1013.4 |
| 20260506191555 | 72 | 359 | 1.0 | 3.0 | 0.00 | 0.00 | 0.00 | 85 | 1013.3 |
| 20260506191057 | 74 | 359 | 1.0 | 4.0 | 0.00 | 0.00 | 0.00 | 84 | 1013.4 |
| 20260506190554 | 75 | 359 | 2.0 | 4.0 | 0.00 | 0.00 | 0.00 | 85 | 1013.4 |
| 20260506190054 | 75 | 359 | 0.0 | 5.0 | 0.00 | 0.00 | 0.00 | 84 | 1013.5 |
| 20260506185553 | 76 | 359 | 1.0 | 5.0 | 0.00 | 0.00 | 0.00 | 83 | 1013.5 |
| 20260506185056 | 77 | 359 | 1.0 | 4.0 | 0.00 | 0.00 | 0.00 | 82 | 1013.6 |
| 20260506184604 | 78 | 359 | 2.0 | 4.0 | 0.00 | 0.00 | 0.00 | 82 | 1013.7 |
| 20260506184055 | 78 | 359 | 0.0 | 3.0 | 0.00 | 0.00 | 0.00 | 82 | 1013.6 |
| 20260506183556 | 78 | 359 | 0.0 | 2.0 | 0.00 | 0.00 | 0.00 | 80 | 1013.7 |
| 20260506183103 | 78 | 359 | 0.0 | 2.0 | 0.00 | 0.00 | 0.00 | 79 | 1013.8 |
| 20260506182552 | 77 | 359 | 0.0 | 4.0 | 0.00 | 0.00 | 0.00 | 77 | 1013.8 |
| 20260506182051 | 77 | 359 | 1.0 | 6.0 | 0.00 | 0.00 | 0.00 | 72 | 1013.9 |
| 20260506181558 | 77 | 359 | 1.0 | 7.0 | 0.00 | 0.00 | 0.00 | 64 | 1013.9 |
| 20260506181051 | 76 | 359 | 3.0 | 7.0 | 0.00 | 0.00 | 0.00 | 64 | 1014.0 |
| 20260506180554 | 76 | 359 | 3.0 | 7.0 | 0.00 | 0.00 | 0.00 | 63 | 1014.0 |
| 20260506180050 | 77 | 359 | 4.0 | 9.0 | 0.00 | 0.00 | 0.00 | 61 | 1014.0 |
| 20260506175549 | 77 | 359 | 6.0 | 10.0 | 0.00 | 0.00 | 0.00 | 64 | 1014.1 |
| 20260506175050 | 77 | 359 | 6.0 | 10.0 | 0.00 | 0.00 | 0.00 | 63 | 1014.1 |
| 20260506174545 | 77 | 359 | 6.0 | 10.0 | 0.00 | 0.00 | 0.00 | 64 | 1014.2 |
| 20260506174044 | 77 | 359 | 3.0 | 11.0 | 0.00 | 0.00 | 0.00 | 67 | 1014.2 |
| 20260506173547 | 76 | 359 | 5.0 | 11.0 | 0.00 | 0.00 | 0.00 | 67 | 1014.2 |
| 20260506173053 | 76 | 359 | 6.0 | 9.0 | 0.00 | 0.00 | 0.00 | 65 | 1014.3 |
| 20260506172543 | 76 | 359 | 4.0 | 11.0 | 0.00 | 0.00 | 0.00 | 68 | 1014.3 |
| 20260506172043 | 76 | 359 | 6.0 | 11.0 | 0.00 | 0.00 | 0.00 | 66 | 1014.3 |
| 20260506171546 | 76 | 359 | 8.0 | 12.0 | 0.00 | 0.00 | 0.00 | 65 | 1014.4 |
| 20260506171042 | 76 | 359 | 7.0 | 12.0 | 0.00 | 0.00 | 0.00 | 65 | 1014.4 |
| 20260506170542 | 75 | 359 | 5.0 | 8.0 | 0.00 | 0.00 | 0.00 | 68 | 1014.5 |
| 20260506170045 | 76 | 359 | 5.0 | 11.0 | 0.00 | 0.00 | 0.00 | 67 | 1014.6 |
| 20260506165540 | 77 | 359 | 5.0 | 11.0 | 0.00 | 0.00 | 0.00 | 66 | 1014.6 |
| 20260506165041 | 76 | 359 | 8.0 | 11.0 | 0.00 | 0.00 | 0.00 | 68 | 1014.5 |
| 20260506164551 | 76 | 359 | 7.0 | 11.0 | 0.00 | 0.00 | 0.00 | 71 | 1014.5 |
| 20260506164047 | 75 | 4 | 6.0 | 12.0 | 0.00 | 0.00 | 0.00 | 70 | 1014.8 |
| 20260506163545 | 76 | 359 | 8.0 | 12.0 | 0.00 | 0.00 | 0.00 | 69 | 1014.9 |
| 20260506163051 | 76 | 359 | 5.0 | 10.0 | 0.00 | 0.00 | 0.00 | 70 | 1015.0 |
| 20260506162544 | 76 | 359 | 5.0 | 11.0 | 0.00 | 0.00 | 0.00 | 70 | 1015.1 |
| 20260506162043 | 76 | 359 | 6.0 | 11.0 | 0.00 | 0.00 | 0.00 | 71 | 1015.1 |
| 20260506161550 | 75 | 359 | 6.0 | 10.0 | 0.00 | 0.00 | 0.00 | 71 | 1015.2 |
| 20260506161043 | 76 | 359 | 6.0 | 10.0 | 0.00 | 0.00 | 0.00 | 70 | 1015.3 |
| 20260506160541 | 75 | 359 | 2.0 | 9.0 | 0.00 | 0.00 | 0.00 | 73 | 1015.4 |
| 20260506160045 | 75 | 359 | 4.0 | 12.0 | 0.00 | 0.00 | 0.00 | 70 | 1015.4 |
| 20260506155539 | 76 | 359 | 8.0 | 12.0 | 0.00 | 0.00 | 0.00 | 68 | 1015.5 |
| 20260506155041 | 77 | 21 | 6.0 | 12.0 | 0.00 | 0.00 | 0.00 | 70 | 1015.6 |
| 20260506154532 | 76 | 359 | 6.0 | 12.0 | 0.00 | 0.00 | 0.00 | 69 | 1015.6 |
| 20260506154030 | 76 | 359 | 5.0 | 14.0 | 0.00 | 0.00 | 0.00 | 70 | 1015.8 |
| 20260506153528 | 75 | 359 | 7.0 | 12.0 | 0.00 | 0.00 | 0.00 | 72 | 1016.0 |
| 20260506153028 | 76 | 359 | 7.0 | 12.0 | 0.00 | 0.00 | 0.00 | 70 | 1016.0 |
| 20260506152528 | 76 | 359 | 8.0 | 12.0 | 0.00 | 0.00 | 0.00 | 69 | 1016.1 |
| 20260506152027 | 76 | 359 | 6.0 | 11.0 | 0.00 | 0.00 | 0.00 | 70 | 1016.3 |
| 20260506151533 | 76 | 359 | 4.0 | 11.0 | 0.00 | 0.00 | 0.00 | 74 | 1016.3 |
| 20260506151023 | 75 | 359 | 5.0 | 10.0 | 0.00 | 0.00 | 0.00 | 74 | 1016.4 |
| 20260506150524 | 75 | 359 | 6.0 | 11.0 | 0.00 | 0.00 | 0.00 | 74 | 1016.5 |
| 20260506150029 | 75 | 359 | 8.0 | 11.0 | 0.00 | 0.00 | 0.00 | 74 | 1016.6 |
| 20260506145520 | 75 | 359 | 5.0 | 11.0 | 0.00 | 0.00 | 0.00 | 74 | 1016.7 |
| 20260506145023 | 75 | 359 | 7.0 | 12.0 | 0.00 | 0.00 | 0.00 | 74 | 1016.9 |
| 20260506144518 | 75 | 359 | 7.0 | 12.0 | 0.00 | 0.00 | 0.00 | 73 | 1016.9 |
| 20260506144029 | 74 | 359 | 8.0 | 12.0 | 0.00 | 0.00 | 0.00 | 74 | 1017.0 |
| 20260506143519 | 74 | 359 | 6.0 | 12.0 | 0.00 | 0.00 | 0.00 | 77 | 1017.1 |
| 20260506143034 | 74 | 359 | 8.0 | 12.0 | 0.00 | 0.00 | 0.00 | 75 | 1017.2 |
| 20260506142513 | 74 | 359 | 7.0 | 11.0 | 0.00 | 0.00 | 0.00 | 78 | 1017.2 |
| 20260506142011 | 73 | 359 | 7.0 | 13.0 | 0.00 | 0.00 | 0.00 | 77 | 1017.1 |
| 20260506141511 | 73 | 359 | 7.0 | 13.0 | 0.00 | 0.00 | 0.00 | 79 | 1017.2 |
| 20260506141010 | 73 | 359 | 6.0 | 11.0 | 0.00 | 0.00 | 0.00 | 79 | 1017.2 |
| 20260506140509 | 73 | 359 | 7.0 | 16.0 | 0.00 | 0.00 | 0.00 | 79 | 1017.3 |
| 20260506140010 | 72 | 359 | 10.0 | 16.0 | 0.00 | 0.00 | 0.00 | 79 | 1017.3 |
| 20260506135507 | 72 | 359 | 8.0 | 15.0 | 0.00 | 0.00 | 0.00 | 79 | 1017.4 |
| 20260506135005 | 72 | 359 | 9.0 | 16.0 | 0.00 | 0.00 | 0.00 | 80 | 1017.5 |
| 20260506134507 | 72 | 359 | 10.0 | 16.0 | 0.00 | 0.00 | 0.00 | 77 | 1017.4 |
| 20260506134005 | 72 | 359 | 10.0 | 17.0 | 0.00 | 0.00 | 0.00 | 79 | 1017.5 |
| 20260506133504 | 71 | 359 | 11.0 | 17.0 | 0.00 | 0.00 | 0.00 | 79 | 1017.4 |
| 20260506133005 | 71 | 359 | 9.0 | 16.0 | 0.00 | 0.00 | 0.00 | 81 | 1017.5 |
| 20260506132504 | 71 | 359 | 12.0 | 17.0 | 0.00 | 0.00 | 0.00 | 80 | 1017.6 |
| 20260506132001 | 71 | 359 | 12.0 | 17.0 | 0.00 | 0.00 | 0.00 | 81 | 1017.6 |
| 20260506131500 | 71 | 359 | 10.0 | 16.0 | 0.00 | 0.00 | 0.00 | 82 | 1017.7 |
| 20260506131059 | 71 | 359 | 10.0 | 15.0 | 0.00 | 0.00 | 0.00 | 81 | 1017.7 |
| 20260506130558 | 71 | 359 | 9.0 | 15.0 | 0.00 | 0.00 | 0.00 | 85 | 1017.6 |
| 20260506130126 | 70 | 359 | 10.0 | 15.0 | 0.00 | 0.00 | 0.00 | 84 | 1017.7 |
| 20260506125559 | 70 | 359 | 10.0 | 15.0 | 0.00 | 0.00 | 0.00 | 84 | 1017.8 |
| 20260506125054 | 70 | 359 | 9.0 | 14.0 | 0.00 | 0.00 | 0.00 | 85 | 1017.7 |
| 20260506124052 | 69 | 359 | 10.0 | 14.0 | 0.00 | 0.00 | 0.00 | 86 | 1017.8 |
| 20260506123552 | 70 | 359 | 9.0 | 14.0 | 0.00 | 0.00 | 0.00 | 85 | 1018.0 |
| 20260506123049 | 70 | 359 | 8.0 | 12.0 | 0.00 | 0.00 | 0.00 | 86 | 1018.0 |
| 20260506122548 | 70 | 359 | 7.0 | 13.0 | 0.00 | 0.00 | 0.00 | 86 | 1018.1 |
| 20260506122046 | 69 | 359 | 9.0 | 13.0 | 0.00 | 0.00 | 0.00 | 85 | 1018.0 |
| 20260506121546 | 69 | 359 | 7.0 | 12.0 | 0.00 | 0.00 | 0.00 | 85 | 1018.1 |
| 20260506121044 | 69 | 359 | 8.0 | 12.0 | 0.00 | 0.00 | 0.00 | 86 | 1018.0 |
| 20260506120542 | 69 | 4 | 7.0 | 10.0 | 0.00 | 0.00 | 0.00 | 86 | 1018.0 |
| 20260506120043 | 69 | 359 | 7.0 | 11.0 | 0.00 | 0.00 | 0.00 | 86 | 1017.9 |
| 20260506115540 | 68 | 359 | 7.0 | 10.0 | 0.00 | 0.00 | 0.00 | 87 | 1017.9 |
| 20260506115039 | 68 | 359 | 8.0 | 10.0 | 0.00 | 0.00 | 0.00 | 87 | 1017.8 |
| 20260506114038 | 68 | 359 | 7.0 | 10.0 | 0.00 | 0.00 | 0.00 | 87 | 1017.9 |
| 20260506113536 | 68 | 359 | 7.0 | 10.0 | 0.00 | 0.00 | 0.00 | 87 | 1017.9 |
| 20260506113035 | 68 | 359 | 6.0 | 10.0 | 0.00 | 0.00 | 0.00 | 87 | 1017.9 |
| 20260506112533 | 68 | 359 | 7.0 | 11.0 | 0.00 | 0.00 | 0.00 | 88 | 1017.8 |
| 20260506112031 | 68 | 359 | 7.0 | 11.0 | 0.00 | 0.00 | 0.00 | 88 | 1017.8 |
| 20260506111533 | 68 | 359 | 6.0 | 11.0 | 0.00 | 0.00 | 0.00 | 87 | 1017.8 |
| 20260506111029 | 68 | 359 | 7.0 | 10.0 | 0.00 | 0.00 | 0.00 | 88 | 1017.7 |
| 20260506110528 | 67 | 359 | 6.0 | 10.0 | 0.00 | 0.00 | 0.00 | 88 | 1017.6 |
| 20260506110029 | 67 | 359 | 8.0 | 11.0 | 0.00 | 0.00 | 0.00 | 88 | 1017.6 |
| 20260506105525 | 67 | 359 | 7.0 | 10.0 | 0.00 | 0.00 | 0.00 | 88 | 1017.5 |
| 20260506105022 | 67 | 359 | 7.0 | 10.0 | 0.00 | 0.00 | 0.00 | 89 | 1017.5 |
| 20260506104021 | 66 | 359 | 8.0 | 10.0 | 0.00 | 0.00 | 0.00 | 90 | 1017.5 |
| 20260506103519 | 66 | 359 | 7.0 | 11.0 | 0.00 | 0.00 | 0.00 | 91 | 1017.5 |
| 20260506103019 | 66 | 359 | 7.0 | 11.0 | 0.00 | 0.00 | 0.00 | 91 | 1017.4 |
| 20260506102519 | 66 | 359 | 7.0 | 10.0 | 0.00 | 0.00 | 0.00 | 92 | 1017.3 |
| 20260506102019 | 66 | 359 | 7.0 | 11.0 | 0.00 | 0.00 | 0.00 | 92 | 1017.2 |
| 20260506101537 | 66 | 359 | 8.0 | 11.0 | 0.00 | 0.00 | 0.00 | 91 | 1017.2 |
| 20260506101018 | 66 | 359 | 8.0 | 11.0 | 0.00 | 0.00 | 0.00 | 92 | 1017.3 |
| 20260506100520 | 66 | 359 | 7.0 | 11.0 | 0.00 | 0.00 | 0.00 | 92 | 1017.2 |
| 20260506100018 | 66 | 359 | 7.0 | 11.0 | 0.00 | 0.00 | 0.00 | 92 | 1017.2 |
| 20260506095517 | 65 | 359 | 7.0 | 11.0 | 0.00 | 0.00 | 0.00 | 93 | 1017.1 |
| 20260506095018 | 65 | 359 | 8.0 | 11.0 | 0.00 | 0.00 | 0.00 | 93 | 1017.1 |
| 20260506094017 | 65 | 359 | 8.0 | 11.0 | 0.00 | 0.00 | 0.00 | 93 | 1017.0 |
| 20260506093517 | 65 | 359 | 7.0 | 11.0 | 0.00 | 0.00 | 0.00 | 92 | 1017.1 |
| 20260506093017 | 66 | 359 | 8.0 | 11.0 | 0.00 | 0.00 | 0.00 | 92 | 1017.0 |
| 20260506092517 | 66 | 4 | 7.0 | 10.0 | 0.00 | 0.00 | 0.00 | 92 | 1017.0 |
| 20260506092019 | 66 | 359 | 7.0 | 10.0 | 0.00 | 0.00 | 0.00 | 91 | 1016.9 |
| 20260506091521 | 65 | 359 | 6.0 | 9.0 | 0.00 | 0.00 | 0.00 | 91 | 1016.9 |
| 20260506091017 | 65 | 359 | 7.0 | 10.0 | 0.00 | 0.00 | 0.00 | 90 | 1016.8 |
| 20260506090517 | 66 | 359 | 7.0 | 10.0 | 0.00 | 0.00 | 0.00 | 90 | 1016.7 |
| 20260506090017 | 66 | 359 | 7.0 | 9.0 | 0.00 | 0.00 | 0.00 | 89 | 1016.7 |
| 20260506085517 | 66 | 359 | 7.0 | 9.0 | 0.00 | 0.00 | 0.00 | 88 | 1016.7 |
| 20260506085019 | 66 | 359 | 7.0 | 9.0 | 0.00 | 0.00 | 0.00 | 88 | 1016.7 |
| 20260506084017 | 66 | 359 | 7.0 | 9.0 | 0.00 | 0.00 | 0.00 | 88 | 1016.4 |
| 20260506083517 | 66 | 359 | 7.0 | 9.0 | 0.00 | 0.00 | 0.00 | 88 | 1016.4 |
| 20260506083017 | 66 | 359 | 6.0 | 8.0 | 0.00 | 0.00 | 0.00 | 88 | 1016.4 |
| 20260506082516 | 66 | 359 | 6.0 | 8.0 | 0.00 | 0.00 | 0.00 | 88 | 1016.2 |
| 20260506082021 | 66 | 359 | 6.0 | 8.0 | 0.00 | 0.00 | 0.00 | 88 | 1016.2 |
| 20260506081516 | 66 | 359 | 6.0 | 8.0 | 0.00 | 0.00 | 0.00 | 87 | 1016.3 |
| 20260506081021 | 66 | 359 | 6.0 | 8.0 | 0.00 | 0.00 | 0.00 | 86 | 1016.3 |
| 20260506080520 | 67 | 359 | 6.0 | 7.0 | 0.00 | 0.00 | 0.00 | 86 | 1016.2 |
| 20260506073521 | 66 | 359 | 6.0 | 8.0 | 0.00 | 0.00 | 0.00 | 87 | 1016.5 |
| 20260506073020 | 66 | 359 | 5.0 | 8.0 | 0.00 | 0.00 | 0.00 | 87 | 1016.5 |
| 20260506072520 | 66 | 359 | 5.0 | 7.0 | 0.00 | 0.00 | 0.00 | 87 | 1016.6 |
| 20260506072020 | 66 | 359 | 5.0 | 7.0 | 0.00 | 0.00 | 0.00 | 88 | 1016.5 |
| 20260506071520 | 66 | 359 | 5.0 | 8.0 | 0.00 | 0.00 | 0.00 | 89 | 1016.3 |
| 20260506071020 | 66 | 359 | 5.0 | 8.0 | 0.00 | 0.00 | 0.00 | 89 | 1016.3 |
| 20260506070520 | 66 | 359 | 5.0 | 9.0 | 0.00 | 0.00 | 0.00 | 89 | 1016.3 |
| 20260506062014 | 66 | 359 | 7.0 | 10.0 | 0.00 | 0.00 | 0.00 | 90 | 1016.0 |
| 20260506061514 | 66 | 359 | 7.0 | 10.0 | 0.00 | 0.00 | 0.00 | 90 | 1016.0 |
| 20260506061019 | 66 | 359 | 6.0 | 11.0 | 0.00 | 0.00 | 0.00 | 90 | 1015.9 |